Location: Corcelles
(46.1547°N, 4.7234°E)
Time: 07:24:39
(UTC+00:00)

CENTAUR R/B - Pass Details

Date: 14 July 2020
Orbit: 756 x 1432 km, 63.5° (Epoch: 11 August)

Event Time Altitude Azimuth Distance (km) Brightness Sun altitude
Exits shadow 03:08:53 - 185° (S) 3,268 4.8 -8.3°
Reaches altitude 10° 03:11:07 10° 177° (S) 2,500 4.3 -8.0°
Maximum altitude 03:16:18 35° 113° (ESE) 1,506 3.8 -7.4°
Drops below altitude 10° 03:22:17 10° 51° (NE) 2,906 6.8 -6.6°
Sets 03:25:23 0° 43° (NE) 3,983 8.2 -6.2°
